GLOBALSTAR M029 [+]

Last updated on Fri Nov 22 2019 04:19:47 GMT+0000 (Greenwich Mean Time)

1 25963U 99062C 19325.14252278 -.00000081 00000-0 68077-4 0 9994 2 25963 51.9787 202.0527 0003777 75.4698 60.1411 11.99841025924889
UTC large
Height (km)
Speed (km/s)
/
Latitude / Longitude
Inclination (degrees)
Orbital Period (minutes)
Azimuth
Elevation
Range (km)
Doppler Factor

Next 0 passes for location: London (51.5072 / 0.1276)

Sorry there are no passes over London.